sat.trackr.live / text

‹ back to catalog

STARLINK-2419

NORAD 47830 · 2021-018AV

PAYLOAD ACTIVE UNKNOWN

§ Identity

Operator
Country
US
Launch date
2021-03-11
Launch site
AFETR
Launch vehicle
Mass (kg)
RCS (m²)

Purposes: comms

External: N2YO · Heavens-Above · Gunter

§ Orbital elements

Epoch: 2026-05-25T00:49:14.733120Z

Period
94.01 min
Inclination
53.1608°
Eccentricity
0.0001547
Mean motion
15.31708031 rev/d
Perigee alt
469.7 km
Apogee alt
471.8 km
Semi-major
6,848.9 km
B*
5.3665e-5
RAAN
260.5356°
Arg perigee
87.1048°
Mean anomaly
273.0130°
Rev number
28,823

§ Raw data

STARLINK-24191 47830U 21018AV  26145.03419830  .00001301  00000+0  53665-4 0  99932 47830  53.1608 260.5356 0001547  87.1048 273.0130 15.31708031288237

JSON: /api/v1/satellites/47830 · /tle

For live sub-satellite position, see the globe view (requires WebGL).

§ Visibility from observer

Set your observer location to see the next 7 days of passes ≥ 10°. The values pass through the URL so the page stays shareable.

No JS? Fill the form by hand. The geolocation button needs JavaScript.